South St. Paul, MN

12:41 AM CDT on July 25, 2017 (GMT -0500)
South Saint Paul Municipal-Fleming

Weather History for KSGS - March, 2013

Change the Weather History Date:

Saturday, March 30, 2013

  Actual Average (KSTP) Record (KSTP)
Temperature  
Mean Temperature 45 °F -  
Max Temperature 53 °F 46 °F 72 °F (1999)
Min Temperature 37 °F 29 °F 23 °F (2011)
Degree Days  
Heating Degree Days 20    
Moisture  
Dew Point 36 °F    
Average Humidity 76    
Maximum Humidity 98    
Minimum Humidity 53    
Precipitation  
Precipitation 0.18 in - - ()
Sea Level Pressure  
Sea Level Pressure 29.90 in    
Wind  
Wind Speed 5 mph (WSW)    
Max Wind Speed 13 mph    
Max Gust Speed 20 mph    
Visibility 9 miles    
Events Rain , Thunderstorm    
Averages and records for this station are not official NWS values.
T = Trace of Precipitation, MM = Missing Value Source: NWS Daily Summary

Daily Weather History Graph

Daily Weather History Graph

Search for Another Location

Airport or City:

Trip Planner

Search our weather history database for the weather conditions in past years. The results will help you decide how hot, cold, wet, or windy it might be!

Date:

Astronomy

Mar. 30, 2013 Rise Set
Actual Time 6:56 AM CDT 7:37 PM CDT
Civil Twilight 6:26 AM CDT 8:07 PM CDT
Nautical Twilight 5:51 AM CDT 8:42 PM CDT
Astronomical Twilight 5:15 AM CDT 9:18 PM CDT
Moon 11:55 PM CDT (3/30) 8:42 AM CDT (3/30)
Length of Visible Light 13h 40m
Length of Day
12h 41m
Waning Gibbous, 86% of the Moon is Illuminated
Mar 30
Waning Gibbous
Apr 2
Last Quarter
Apr 10
New
Apr 18
First Quarter
Apr 25
Full

Hourly Weather History & Observations

Time (CDT) Temp. Windchill Dew Point Humidity Pressure Visibility Wind Dir Wind Speed Gust Speed Precip Events Conditions
12:13 AM 41.0 °F - 32.9 °F 73% 30.08 in 10.0 mi Calm Calm - N/A   Mostly Cloudy
12:32 AM 41.0 °F 39.0 °F 32.9 °F 73% 30.07 in 10.0 mi SE 3.5 mph - N/A   Overcast
12:52 AM 41.0 °F 38.0 °F 33.1 °F 73% 30.07 in 10.0 mi SSE 4.6 mph - N/A   Overcast
1:13 AM 41.0 °F 39.0 °F 33.1 °F 73% 30.06 in 10.0 mi SE 3.5 mph - N/A   Overcast
1:32 AM 41.0 °F 39.0 °F 33.1 °F 73% 30.05 in 10.0 mi SSE 3.5 mph - N/A   Mostly Cloudy
1:52 AM 41.0 °F 37.1 °F 32.9 °F 73% 30.03 in 10.0 mi SSE 5.8 mph - N/A   Scattered Clouds
2:12 AM 41.2 °F 37.3 °F 33.1 °F 73% 30.02 in 10.0 mi SSE 5.8 mph - N/A   Mostly Cloudy
2:32 AM 41.4 °F 38.4 °F 32.9 °F 72% 30.02 in 10.0 mi SSE 4.6 mph - N/A   Overcast
2:53 AM 41.4 °F 37.6 °F 32.9 °F 72% 30.00 in 10.0 mi SSE 5.8 mph - N/A   Overcast
3:12 AM 41.9 °F 37.5 °F 32.9 °F 70% 29.99 in 10.0 mi SSE 6.9 mph - N/A   Overcast
3:32 AM 42.3 °F 36.8 °F 32.5 °F 68% 29.98 in 10.0 mi SSE 9.2 mph - N/A   Overcast
3:53 AM 42.1 °F 37.1 °F 32.4 °F 68% 29.97 in 10.0 mi South 8.1 mph - N/A   Mostly Cloudy
4:12 AM 42.4 °F 38.1 °F 32.4 °F 68% 29.97 in 10.0 mi South 6.9 mph - N/A   Overcast
4:32 AM 41.9 °F 36.9 °F 33.3 °F 71% 29.95 in 10.0 mi SSE 8.1 mph - N/A Rain Light Rain
4:53 AM 41.2 °F 34.1 °F 33.8 °F 75% 29.94 in 10.0 mi SSE 12.7 mph 19.6 mph N/A Rain , Thunderstorm Light Thunderstorms and Rain
5:12 AM 41.7 °F 38.0 °F 33.1 °F 71% 29.98 in 10.0 mi NW 5.8 mph 16.1 mph 0.01 in Rain Rain
5:33 AM 41.2 °F 39.2 °F 34.3 °F 77% 29.97 in 5.0 mi South 3.5 mph - 0.05 in Rain Light Rain
5:52 AM 39.9 °F 35.8 °F 35.2 °F 83% 29.95 in 4.0 mi SSE 5.8 mph - 0.08 in Rain Light Rain
6:12 AM 39.4 °F 36.1 °F 35.8 °F 87% 29.94 in 4.0 mi SSE 4.6 mph - 0.03 in Rain Light Rain
6:32 AM 39.2 °F 33.6 °F 36.1 °F 89% 29.92 in 4.0 mi SSE 8.1 mph - 0.07 in Rain Light Rain
6:52 AM 38.3 °F 32.5 °F 36.7 °F 94% 29.91 in 5.0 mi SSE 8.1 mph - 0.08 in Rain Light Rain
7:12 AM 37.9 °F 33.5 °F 37.0 °F 97% 29.91 in 5.0 mi SSE 5.8 mph - N/A   Overcast
7:32 AM 37.8 °F 32.5 °F 37.0 °F 97% 29.91 in 7.0 mi South 6.9 mph - N/A   Overcast
7:52 AM 37.9 °F 33.5 °F 37.4 °F 98% 29.90 in 5.0 mi South 5.8 mph - N/A   Overcast
8:13 AM 37.8 °F 34.2 °F 37.0 °F 97% 29.90 in 5.0 mi South 4.6 mph - N/A   Overcast
8:32 AM 38.3 °F 35.9 °F 37.0 °F 95% 29.90 in 4.0 mi South 3.5 mph - N/A   Drizzle
8:52 AM 39.4 °F 37.2 °F 37.4 °F 93% 29.90 in 5.0 mi SW 3.5 mph - 0.01 in Rain Light Rain
9:13 AM 39.9 °F 35.1 °F 36.7 °F 88% 29.89 in 7.0 mi SSW 6.9 mph - N/A   Light Drizzle
9:32 AM 39.9 °F 35.1 °F 36.9 °F 89% 29.88 in 7.0 mi SSW 6.9 mph - N/A Rain Light Rain
9:52 AM 40.1 °F 35.3 °F 36.9 °F 88% 29.88 in 5.0 mi SSW 6.9 mph - 0.01 in Rain Light Rain
10:13 AM 40.1 °F 35.3 °F 37.4 °F 90% 29.88 in 5.0 mi SW 6.9 mph - N/A Rain Light Rain
10:32 AM 40.1 °F 36.9 °F 37.6 °F 91% 29.88 in 7.0 mi WSW 4.6 mph - N/A   Overcast
10:52 AM 40.3 °F 37.1 °F 37.8 °F 91% 29.88 in 7.0 mi SW 4.6 mph - N/A   Overcast
11:12 AM 41.0 °F - 38.3 °F 90% 29.88 in 7.0 mi Calm Calm - N/A   Overcast
11:32 AM 42.1 °F - 39.7 °F 91% 29.88 in 7.0 mi Calm Calm - N/A   Mostly Cloudy
11:53 AM 44.6 °F 40.2 °F 40.5 °F 85% 29.87 in 10.0 mi West 8.1 mph - N/A   Scattered Clouds
12:12 PM 45.5 °F 42.5 °F 40.5 °F 83% 29.88 in 10.0 mi WNW 5.8 mph - N/A   Mostly Cloudy
12:33 PM 45.9 °F 43.6 °F 40.6 °F 82% 29.88 in 7.0 mi WNW 4.6 mph - N/A   Mostly Cloudy
12:52 PM 46.4 °F 43.5 °F 40.5 °F 80% 29.87 in 10.0 mi WNW 5.8 mph - N/A   Mostly Cloudy
1:13 PM 46.8 °F - 40.3 °F 78% 29.87 in 10.0 mi NNW 6.9 mph - N/A   Overcast
1:32 PM 47.3 °F - 40.1 °F 76% 29.87 in 10.0 mi NNW 6.9 mph - N/A   Mostly Cloudy
1:52 PM 47.8 °F - 40.3 °F 75% 29.87 in 10.0 mi NNW 5.8 mph - N/A   Scattered Clouds
2:12 PM 48.6 °F - 40.6 °F 74% 29.86 in 10.0 mi North 3.5 mph - N/A   Scattered Clouds
2:32 PM 49.8 °F - 40.6 °F 71% 29.86 in 10.0 mi NW 5.8 mph - N/A   Mostly Cloudy
2:52 PM 50.9 °F - 41.0 °F 69% 29.85 in 10.0 mi WNW 5.8 mph - N/A   Scattered Clouds
3:12 PM 51.1 °F - 40.1 °F 66% 29.85 in 10.0 mi NW 8.1 mph - N/A   Clear
3:32 PM 52.2 °F - 39.7 °F 63% 29.85 in 10.0 mi North 8.1 mph - N/A   Scattered Clouds
3:53 PM 52.7 °F - 39.2 °F 60% 29.84 in 10.0 mi NW 8.1 mph 16.1 mph N/A   Scattered Clouds
4:12 PM 52.9 °F - 38.8 °F 59% 29.84 in 10.0 mi NW 12.7 mph - N/A   Scattered Clouds
4:33 PM 53.4 °F - 37.8 °F 55% 29.84 in 10.0 mi NW 8.1 mph - N/A   Scattered Clouds
4:52 PM 52.9 °F - 37.8 °F 56% 29.84 in 10.0 mi WNW 6.9 mph - N/A   Clear
5:12 PM 52.9 °F - 37.6 °F 56% 29.84 in 10.0 mi NW 10.4 mph 16.1 mph N/A   Clear
5:33 PM 52.5 °F - 36.1 °F 54% 29.84 in 10.0 mi NNW 10.4 mph - N/A   Clear
5:52 PM 52.7 °F - 36.1 °F 53% 29.84 in 10.0 mi NNW 8.1 mph - N/A   Clear
6:12 PM 52.3 °F - 36.1 °F 54% 29.84 in 10.0 mi WNW 9.2 mph - N/A   Clear
6:33 PM 52.3 °F - 35.8 °F 53% 29.84 in 10.0 mi WNW 9.2 mph - N/A   Clear
6:52 PM 51.6 °F - 36.7 °F 57% 29.84 in 10.0 mi WNW 5.8 mph - N/A   Clear
7:12 PM 50.4 °F - 36.5 °F 59% 29.85 in 10.0 mi WNW 6.9 mph - N/A   Clear
7:33 PM 48.2 °F - 37.6 °F 67% 29.84 in 10.0 mi West 6.9 mph - N/A   Clear
7:52 PM 47.3 °F - 37.0 °F 68% 29.84 in 10.0 mi West 6.9 mph - N/A   Clear
8:13 PM 45.5 °F 41.3 °F 36.5 °F 71% 29.85 in 10.0 mi West 8.1 mph - N/A   Clear
8:32 PM 44.6 °F 40.2 °F 35.6 °F 71% 29.85 in 10.0 mi West 8.1 mph - N/A   Clear
8:52 PM 43.7 °F 38.6 °F 35.1 °F 72% 29.86 in 10.0 mi West 9.2 mph - N/A   Clear
9:13 PM 43.0 °F 38.2 °F 34.2 °F 71% 29.86 in 10.0 mi West 8.1 mph - N/A   Clear
9:32 PM 42.3 °F 37.9 °F 34.0 °F 72% 29.86 in 10.0 mi West 6.9 mph - N/A   Clear
9:52 PM 41.2 °F 38.2 °F 33.8 °F 75% 29.87 in 10.0 mi West 4.6 mph - N/A   Clear
10:13 PM 40.8 °F 36.9 °F 33.8 °F 76% 29.87 in 10.0 mi West 5.8 mph - N/A   Clear
10:32 PM 39.6 °F 36.3 °F 34.2 °F 81% 29.86 in 7.0 mi West 4.6 mph - N/A   Clear
10:53 PM 39.2 °F 37.0 °F 33.8 °F 81% 29.86 in 7.0 mi WNW 3.5 mph - N/A   Clear
11:12 PM 38.5 °F 35.0 °F 33.3 °F 81% 29.86 in 7.0 mi West 4.6 mph - N/A   Clear
11:32 PM 37.9 °F - 33.3 °F 83% 29.85 in 7.0 mi Calm Calm - N/A   Clear
11:53 PM 37.4 °F - 32.9 °F 84% 29.85 in 7.0 mi Calm Calm - N/A   Clear